Date String (YYYY-MM-DD hh:mm:ss) UTC,Instrument flags,absolute air pressure of the measurement (hPa),sample flow rate (lpm),inlet stack bypass flow (lpm),air temperature of the measurement (°C),ambient temperature measured by the external sensor (°C),aerosol sample conditioner tube jacket temperature (°C),OPC LED temperature (°C),internal box temperature (°C),relative humidity of the measurement (%),span deviation,mass concentration of particles derived from Lorenz-Mie calculation of OPC scattering (μg/m³),mass concentration of particles derived from Lorenz-Mie calculation of OPC scattering (μg/m³),mass concentration of particles derived from Lorenz-Mie calculation of OPC scattering (μg/m³)
DateTimeUTC,F1_M11,P_M11,Q1_M11,Q2_M11,T1_M11,T2_M11,T3_M11,T4_M11,T5_M11,U1_M11,ZSPAN_M11,X0_M11,X2_M11,X1_M11
2024-04-23 19:00:00,SystemResetWarning,0830.9,4.99,000.00,025.6,024.9,000.0,033.9,027.5,014.3,0000.0,0014.35,0004.63,0003.52
2024-04-23 19:01:00,SystemResetWarning,0830.9,5.01,000.00,025.6,025.0,000.0,033.9,027.5,014.6,0000.0,0014.17,0004.64,0003.53
2024-04-23 19:02:00,SystemResetWarning,0830.8,5.01,000.00,025.6,025.0,000.0,033.9,027.5,013.7,0000.0,0013.76,0004.70,0003.56
2024-04-23 19:03:00,SystemResetWarning,0830.8,5.00,000.00,025.7,025.0,000.0,033.9,027.6,013.0,0000.0,0013.28,0004.73,0003.58
2024-04-23 19:04:00,SystemResetWarning,0830.9,4.99,000.00,025.7,025.1,000.0,034.0,027.6,013.7,0000.0,0013.01,0004.77,0003.61
2024-04-23 19:05:00,SystemResetWarning,0830.9,4.99,000.00,025.7,025.1,000.0,034.0,027.6,013.7,0000.0,0012.86,0004.78,0003.64
2024-04-23 19:06:00,SystemResetWarning,0830.9,5.00,000.00,025.8,025.1,000.0,034.0,027.7,013.0,0000.0,0012.59,0004.80,0003.67
2024-04-23 19:07:00,SystemResetWarning,0830.8,5.00,000.00,025.8,025.2,000.0,034.0,027.7,013.2,0000.0,0012.28,0004.83,0003.70
2024-04-23 19:08:00,SystemResetWarning,0830.8,5.01,000.00,025.8,025.2,000.0,034.1,027.7,013.4,0000.0,0011.83,0004.86,0003.73
2024-04-23 19:09:00,SystemResetWarning,0830.8,5.00,000.00,025.8,025.2,000.0,034.1,027.7,013.6,0000.0,0011.36,0004.89,0003.75
2024-04-23 19:10:00,SystemResetWarning,0830.8,5.00,000.00,025.9,025.2,000.0,034.1,027.7,013.2,0000.0,0011.49,0004.92,0003.78
2024-04-23 19:11:00,SystemResetWarning,0830.8,5.01,000.00,025.9,025.2,000.0,034.1,027.8,013.5,0000.0,0010.95,0004.92,0003.80
2024-04-23 19:12:00,SystemResetWarning,0830.8,5.00,000.00,025.9,025.3,000.0,034.2,027.8,013.1,0000.0,0011.66,0004.91,0003.83
2024-04-23 19:13:00,SystemResetWarning,0830.8,4.99,000.00,025.9,025.3,000.0,034.2,027.8,013.5,0000.0,0011.96,0004.90,0003.85
2024-04-23 19:14:00,SystemResetWarning,0830.8,4.99,000.00,026.0,025.4,000.0,034.2,027.8,013.6,0000.0,0012.70,0004.94,0003.87
2024-04-23 19:15:00,SystemResetWarning,0830.8,5.01,000.00,026.0,025.4,000.0,034.2,027.9,013.2,0000.0,0012.72,0004.95,0003.88
2024-04-23 19:16:00,SystemResetWarning,0830.7,5.01,000.00,026.0,025.4,000.0,034.3,027.9,013.4,0000.0,0013.10,0004.98,0003.91
2024-04-23 19:17:00,SystemResetWarning,0830.7,5.00,000.00,026.0,025.4,000.0,034.3,027.9,014.3,0000.0,0013.33,0004.95,0003.90
2024-04-23 19:18:00,SystemResetWarning,0830.7,4.99,000.00,026.1,025.5,000.0,034.3,028.0,013.7,0000.0,0013.32,0004.93,0003.89
2024-04-23 19:19:00,SystemResetWarning,0830.8,4.99,000.00,026.1,025.5,000.0,034.4,028.0,014.0,0000.0,0013.63,0004.93,0003.89
2024-04-23 19:20:00,SystemResetWarning,0830.8,5.00,000.00,026.1,024.9,000.0,034.4,027.6,013.7,0000.0,0014.20,0004.93,0003.89
2024-04-23 19:21:00,SystemResetWarning,0830.7,5.01,000.00,025.6,022.5,000.0,034.4,026.3,013.8,0000.0,0013.28,0004.93,0003.90
2024-04-23 19:22:00,SystemResetWarning,0830.6,5.01,000.00,025.2,021.6,000.0,034.4,025.5,014.4,0000.0,0012.87,0004.93,0003.91
2024-04-23 19:23:00,SystemResetWarning,0830.7,5.00,000.00,025.0,021.9,000.0,034.2,025.6,015.6,0000.0,0012.75,0004.97,0003.95
2024-04-23 19:24:00,SystemResetWarning,0830.7,5.00,000.00,024.9,022.3,000.0,034.0,026.0,014.3,0000.0,0013.07,0005.00,0003.98
2024-04-23 19:25:00,SystemResetWarning,0830.7,5.00,000.00,024.9,022.7,000.0,033.9,026.3,014.4,0000.0,0012.78,0005.06,0004.02
2024-04-23 19:26:00,SystemResetWarning,0830.7,4.98,000.00,024.9,023.1,000.0,033.8,026.5,014.0,0000.0,0012.76,0005.11,0004.06
2024-04-23 19:27:00,SystemResetWarning,0830.8,5.00,000.00,025.0,023.4,000.0,033.8,026.6,014.3,0000.0,0012.59,0005.16,0004.11
2024-04-23 19:28:00,SystemResetWarning,0830.7,5.00,000.00,025.0,023.6,000.0,033.7,026.7,013.8,0000.0,0012.09,0005.19,0004.17
2024-04-23 19:29:00,SystemResetWarning,0830.7,5.00,000.00,025.1,023.8,000.0,033.7,026.8,013.9,0000.0,0012.47,0005.28,0004.23
2024-04-23 19:30:00,SystemResetWarning,0830.7,5.01,000.00,025.1,024.0,000.0,033.7,026.9,013.9,0000.0,0012.24,0005.35,0004.30
2024-04-23 19:31:00,SystemResetWarning,0830.6,5.01,000.00,025.1,024.1,000.0,033.7,027.0,013.6,0000.0,0011.57,0005.39,0004.37
2024-04-23 19:32:00,SystemResetWarning,0830.6,5.00,000.00,025.2,024.3,000.0,033.7,027.0,013.7,0000.0,0012.10,0005.47,0004.44
2024-04-23 19:33:00,SystemResetWarning,0830.6,5.00,000.00,025.2,024.4,000.0,033.7,027.1,014.2,0000.0,0012.72,0005.51,0004.51
2024-04-23 19:34:00,SystemResetWarning,0830.6,5.00,000.00,025.3,024.5,000.0,033.7,027.1,013.9,0000.0,0012.35,0005.60,0004.55
2024-04-23 19:35:00,SystemResetWarning,0830.6,4.99,000.00,025.3,024.6,000.0,033.7,027.2,014.3,0000.0,0011.62,0005.62,0004.58
2024-04-23 19:36:00,SystemResetWarning,0830.6,4.99,000.00,025.3,024.7,000.0,033.7,027.3,013.9,0000.0,0011.28,0005.63,0004.59
2024-04-23 19:37:00,SystemResetWarning,0830.7,5.00,000.00,025.4,024.7,000.0,033.7,027.3,014.8,0000.0,0012.01,0005.69,0004.61
2024-04-23 19:38:00,SystemResetWarning,0830.7,5.00,000.00,025.5,024.8,000.0,033.7,027.4,015.2,0000.0,0012.41,0005.69,0004.59
2024-04-23 19:39:00,SystemResetWarning,0830.7,5.00,000.00,025.5,024.9,000.0,033.8,027.4,014.9,0000.0,0012.91,0005.73,0004.58
2024-04-23 19:40:00,SystemResetWarning,0830.7,5.01,000.00,025.5,024.9,000.0,033.8,027.4,014.3,0000.0,0013.19,0005.73,0004.59
2024-04-23 19:41:00,SystemResetWarning,0830.7,5.00,000.00,025.6,025.0,000.0,033.8,027.5,014.2,0000.0,0013.29,0005.75,0004.59
2024-04-23 19:42:00,SystemResetWarning,0830.8,5.01,000.00,025.6,025.0,000.0,033.8,027.5,014.0,0000.0,0013.38,0005.76,0004.60
2024-04-23 19:43:00,SystemResetWarning,0830.8,5.00,000.00,025.6,025.0,000.0,033.9,027.5,013.8,0000.0,0013.51,0005.75,0004.62
2024-04-23 19:44:00,SystemResetWarning,0830.8,5.00,000.00,025.7,025.1,000.0,033.9,027.6,013.7,0000.0,0013.35,0005.82,0004.63
2024-04-23 19:45:00,SystemResetWarning,0830.8,5.00,000.00,025.7,025.1,000.0,033.9,027.6,013.7,0000.0,0013.43,0005.83,0004.64
2024-04-23 19:46:00,SystemResetWarning,0830.8,5.00,000.00,025.7,025.1,000.0,034.0,027.6,014.4,0000.0,0014.00,0005.83,0004.64
2024-04-23 19:47:00,SystemResetWarning,0830.8,5.00,000.00,025.8,025.2,000.0,034.0,027.7,014.5,0000.0,0014.85,0005.83,0004.65
2024-04-23 19:48:00,SystemResetWarning,0830.8,5.00,000.00,025.8,025.2,000.0,034.0,027.7,014.4,0000.0,0014.79,0005.80,0004.65
2024-04-23 19:49:00,SystemResetWarning,0830.9,5.00,000.00,025.8,025.3,000.0,034.1,027.7,015.1,0000.0,0014.17,0005.83,0004.68
2024-04-23 19:50:00,SystemResetWarning,0830.8,5.00,000.00,025.9,025.3,000.0,034.1,027.8,015.4,0000.0,0014.36,0005.86,0004.72
2024-04-23 19:51:00,SystemResetWarning,0830.8,5.00,000.00,025.9,025.3,000.0,034.1,027.8,015.0,0000.0,0013.84,0005.90,0004.71
2024-04-23 19:52:00,SystemResetWarning,0830.8,5.00,000.00,025.9,025.3,000.0,034.1,027.8,014.4,0000.0,0013.93,0005.92,0004.71
2024-04-23 19:53:00,SystemResetWarning,0830.9,5.00,000.00,026.0,025.4,000.0,034.2,027.8,014.5,0000.0,0014.68,0005.99,0004.72
2024-04-23 19:54:00,SystemResetWarning,0830.9,5.00,000.00,026.0,025.4,000.0,034.2,027.9,014.3,0000.0,0014.87,0006.04,0004.73
2024-04-23 19:55:00,SystemResetWarning,0830.9,5.01,000.00,026.0,025.4,000.0,034.2,027.9,013.9,0000.0,0014.75,0006.04,0004.75
2024-04-23 19:56:00,SystemResetWarning,0830.9,5.00,000.00,026.0,025.4,000.0,034.2,027.9,014.2,0000.0,0015.04,0006.03,0004.78
2024-04-23 19:57:00,SystemResetWarning,0830.9,5.00,000.00,026.1,025.4,000.0,034.3,027.9,015.1,0000.0,0015.08,0006.06,0004.80
2024-04-23 19:58:00,SystemResetWarning,0831.0,5.00,000.00,026.1,025.5,000.0,034.3,028.0,014.5,0000.0,0014.34,0006.10,0004.84
2024-04-23 19:59:00,SystemResetWarning,0831.1,5.00,000.00,026.1,025.5,000.0,034.3,028.0,014.2,0000.0,0014.05,0006.16,0004.89
